This is the latest recevied weather packets stored in our database for station/object KC4JES. If no packets are shown the sender has not sent any weather packets the latest 10 day(s).
| Time | Temp. | Humidity | Pressure | Rain* | Wind** | Luminosity | Snow |
|---|---|---|---|---|---|---|---|
| 1778108686 | 26.67° C | 62% | 1015.2 hPa | 0 mm | - | 49 W/m² | - |
| 1778108383 | 26.67° C | 61% | 1015.5 hPa | 0 mm | - | 51 W/m² | - |
| 1778108081 | 26.67° C | 65% | 1015.5 hPa | 0 mm | - | 52 W/m² | - |
| 1778107777 | 27.22° C | 64% | 1015.6 hPa | 0 mm | - | 46 W/m² | - |
| 1778107474 | 27.22° C | 66% | 1015.6 hPa | 0 mm | - | 50 W/m² | - |
| 1778107171 | 27.22° C | 65% | 1015.3 hPa | 0 mm | - | 60 W/m² | - |
| 1778106866 | 27.22° C | 66% | 1015.3 hPa | 0 mm | - | 66 W/m² | - |
| 1778106564 | 27.78° C | 67% | 1015.2 hPa | 0 mm | - | 65 W/m² | - |
| 1778106260 | 27.78° C | 67% | 1015.2 hPa | 0 mm | - | 76 W/m² | - |
| 1778105957 | 27.78° C | 66% | 1015.4 hPa | 0 mm | - | 73 W/m² | - |
| 1778105654 | 27.78° C | 64% | 1015.2 hPa | 0 mm | - | 67 W/m² | - |
| 1778105352 | 27.78° C | 62% | 1015.4 hPa | 0 mm | - | 53 W/m² | - |
| 1778105047 | 27.78° C | 61% | 1015.5 hPa | 0 mm | - | 61 W/m² | - |
| 1778104744 | 27.78° C | 62% | 1015.4 hPa | 0 mm | - | 63 W/m² | - |
| 1778104440 | 27.78° C | 62% | 1015.5 hPa | 0 mm | - | 74 W/m² | - |
| 1778104136 | 28.33° C | 62% | 1015.2 hPa | 0 mm | - | 91 W/m² | - |
| 1778103833 | 28.33° C | 63% | 1015.4 hPa | 0 mm | - | 113 W/m² | - |
| 1778103531 | 28.33° C | 63% | 1015.4 hPa | 0 mm | - | 93 W/m² | - |
| 1778103228 | 28.89° C | 61% | 1015.3 hPa | 0 mm | - | 94 W/m² | - |
| 1778102925 | 29.44° C | 63% | 1015.5 hPa | 0 mm | - | 323 W/m² | - |
| 1778102621 | 30° C | 63% | 1015.6 hPa | 0 mm | - | 387 W/m² | - |
| 1778102316 | 29.44° C | 64% | 1015.4 hPa | 0 mm | - | 469 W/m² | - |
| 1778102013 | 29.44° C | 62% | 1015.4 hPa | 0 mm | - | 494 W/m² | - |
| 1778101710 | 29.44° C | 60% | 1015.6 hPa | 0 mm | - | 341 W/m² | - |
| 1778101407 | 30° C | 60% | 1015.5 hPa | 0 mm | - | 422 W/m² | - |
* Rain latest hour (hover to see other rain measurements)
** Current wind speed in m/s (hover to see current wind gust speed)